Vertical_Velocity
1 1 0 1 0 1 1 1 1 1 -1 -2 -1 -2 -2 -4 -3 -0 -6 -5 -3 0 1 2 -2 0 -1 1 8 10 12 -4 5 9 -0 -5 -3 -9 0 -5 -1 6 6 -2 -2
-0 0 0 1 1 1 0 -1 0 1 1 1 1 -2 -1 -4 -3 4 3 -2 3 -1 -0 -3 4 2 2 -1 3 3 -5 -6 -3 3 4 3 2 9 3 4 -2 10 2 6 1
-0 -1 -1 0 1 -0 -0 -1 -1 0 -0 -1 -0 0 -1 -3 -3 -2 -0 0 -0 -1 1 1 -2 1 3 6 2 -2 -21 11 14 2 -3 4 -6 -4 7 -19 0 5 3 2 3
0 1 -0 -0 -1 -1 -0 -1 -1 0 0 2 2 1 0 4 -11 -0 3 3 -7 0 0 -3 0 -2 1 4 -5 -14 -0 -6 -5 13 1 13 1 -4 -9 -4 2 7 3 0 2
0 -0 -1 -0 -1 -2 -1 -2 -0 -1 0 1 2 -6 1 -2 -5 6 2 1 6 4 1 -2 3 5 1 5 9 1 -1 13 0 14 -1 1 -4 1 -31 6 8 10 6 -1 -1
-1 -1 -2 -2 -1 -3 -1 -2 0 0 0 0 2 1 2 -4 1 1 1 -3 -2 11 6 12 -0 6 -3 1 9 0 -1 -6 1 -9 -4 9 -4 6 22 14 6 3 5 3 -2
-2 -1 -2 -2 -1 -3 -1 -1 0 -1 -0 1 1 0 2 5 -0 1 2 -7 6 7 -6 4 -0 8 14 -4 5 -3 -7 2 1 -6 -1 11 -19 -50 14 5 -2 -11 5 1 -2
-1 -1 -1 -3 -2 -3 -2 -2 -0 0 -0 -0 -1 -1 -2 -2 -3 -5 -1 4 2 -0 -2 6 5 -1 3 2 -2 -3 3 2 6 6 -13 29 -51 24 9 3 -6 -0 -1 3 3
-2 -3 -2 -2 -2 -3 -2 -3 1 -2 0 -0 0 1 -4 1 0 -1 -5 -4 2 -0 2 5 -4 -1 5 -2 1 -4 -8 -3 -14 19 -5 32 -6 1 -4 22 12 5 -1 1 -8
-1 -1 -2 -3 -2 -3 -2 -3 -0 -2 -0 -0 -4 -6 -2 -4 -3 -2 -6 0 -2 -1 2 1 1 6 1 2 -5 -3 1 1 5 4 8 5 -4 4 -6 8 -9 -19 -11 4 1
-1 -2 -2 -2 -2 -3 -3 -1 -1 -5 -4 1 -3 -4 -7 -3 -6 -2 -2 0 -3 -2 -2 -4 -3 -7 -10 -3 2 9 -2 -7 -9 -10 19 -11 -0 -5 0 -16 -14 -1 1 6 -3
-2 -1 -2 -2 -5 -4 -3 -3 -2 -0 -2 -1 -2 -4 -3 -4 -1 -1 -1 -2 -1 -5 -7 -5 -5 -2 -7 -0 1 4 0 -4 -0 6 6 -3 -12 1 -2 -8 -9 -2 -5 -3 1
-3 -3 -1 -3 -4 -4 -3 -3 -3 -1 1 0 -2 -1 -4 -2 -2 -1 -1 -4 -2 -6 -3 1 4 1 2 -4 -3 1 1 -3 7 -4 -11 -7 -22 -4 -2 5 3 -7 -6 -0 -2
-3 -2 -4 -1 -5 -4 -3 -2 -2 -1 1 -2 -4 -1 -1 -0 -3 -2 -3 -3 -3 -4 -1 -1 4 -0 -3 2 3 -5 4 5 -0 4 1 3 -7 -10 -13 -7 -8 6 1 -1 -4
-2 -4 -4 -8 -3 -2 -4 -3 -3 -1 -6 -2 -1 -1 -3 -5 -2 -3 -4 -3 -3 -3 5 -8 -6 -0 2 1 6 -9 5 -2 1 6 0 -7 8 -26 2 -4 -1 2 6 -1 18
-1 -2 -4 -4 -2 -3 -3 -2 -3 -2 -9 -2 -1 -4 -5 1 -1 -6 -4 1 -3 -2 -2 -1 -0 -4 0 5 3 -3 -11 1 5 0 -2 -1 7 -21 4 3 -2 5 3 6 -10
-1 -1 -2 -4 -2 -2 -3 -3 -1 -3 -3 -0 -3 -1 -2 -5 -5 -4 0 1 -2 -3 0 0 2 -2 3 5 4 3 -3 -5 -9 -6 -8 1 -2 -17 -3 2 10 8 8 7 5
-2 2 -1 -3 -0 -3 -3 -3 -0 -1 -3 -1 -4 -3 -3 -4 -6 -3 -2 -5 1 4 0 -2 -7 -1 -1 1 -0 1 0 -3 -2 -2 -5 -6 -4 -3 -11 30 -1 -2 -0 1 0
-4 -0 -3 -1 -2 -4 -3 -1 -3 -2 -3 -3 -2 -3 -3 -3 -0 -3 -1 -2 -0 -1 -1 -1 -3 0 1 -1 2 -1 -0 -1 1 1 4 -3 0 -16 14 0 -2 -1 1 4 1
-3 -2 -3 -1 -1 -2 -2 -4 -0 -1 -2 1 -1 -4 -3 -4 -0 1 -4 -1 -0 -0 1 1 -5 -2 1 0 1 -1 -1 2 1 -3 -2 -3 -0 2 -8 -11 -0 0 0 0 4
-5 -7 -4 -4 -2 -1 -2 -3 -1 1 1 -1 -3 -0 -0 -1 1 0 -3 -1 3 0 3 2 3 -3 -2 -6 -0 -3 -1 -1 -0 0 2 0 -1 5 -0 -1 -19 -7 -0 2 -1
-4 0 -0 -0 -2 -2 -2 1 1 0 1 1 -1 2 2 3 -5 1 -5 2 -2 4 -0 1 0 0 -3 1 2 1 -0 -0 -0 -5 -2 0 -27 -13 3 -1 -10 1 -4 2 1
-3 -5 -2 -1 -2 1 -3 -1 -4 2 1 -3 -0 1 2 -1 2 -1 -0 1 1 2 1 1 3 -2 -0 -0 0 1 1 -2 2 4 -5 1 -25 16 -4 -10 15 -4 -3 -4 -4
-6 -4 -8 -4 -2 -1 -3 -1 -0 -3 -2 -2 -1 1 5 -2 5 -4 -5 -2 1 0 2 10 1 -6 -10 -3 2 -0 4 6 6 4 -7 -17 -28 5 -8 -10 -7 -4 2 -6 -4
-0 -4 -1 -4 2 0 -0 2 -1 0 -2 2 -5 2 4 2 -3 -6 1 1 4 2 -3 4 -4 2 2 -1 -3 -3 1 7 3 1 5 -4 -15 13 -5 -3 -7 -2 -7 -6 -0
5 2 -5 0 2 0 4 -3 1 3 0 -1 -7 4 2 0 4 7 10 7 0 -4 -4 1 5 1 -4 -2 -2 -9 -3 3 -2 -1 -3 2 -20 12 5 -1 4 6 3 -0 1
-0 3 -0 -3 -1 3 -1 2 3 2 -7 2 1 5 -3 1 5 -1 9 4 7 0 2 0 3 2 -12 2 0 -8 -6 -1 -2 -1 4 -6 0 9 7 -1 -7 -3 1 -3 -5
Height
3120 3115 3111 3107 3102 3098 3092 3088 3084 3080 3076 3072 3067 3063 3060 3057 3055 3052 3052 3049 3048 3048 3048 3047 3047 3044 3042 3042 3044 3042 3034 3015 3021 3030 3031 3040 3046 3051 3054 3054 3059 3060 3061 3065 3068
3116 3111 3106 3102 3097 3093 3089 3084 3079 3075 3070 3066 3062 3058 3055 3050 3045 3043 3047 3043 3045 3043 3043 3041 3041 3035 3033 3033 3033 3032 3023 3016 3027 3029 3029 3034 3039 3044 3043 3046 3049 3051 3055 3059 3061
3112 3107 3103 3098 3093 3089 3084 3079 3074 3070 3065 3061 3056 3051 3048 3045 3042 3039 3039 3038 3040 3038 3036 3035 3034 3030 3027 3026 3023 3018 3005 3018 3019 3024 3028 3027 3028 3034 3034 3034 3041 3046 3050 3051 3054
3109 3104 3099 3093 3089 3084 3078 3073 3068 3064 3060 3055 3050 3044 3041 3041 3044 3035 3034 3031 3028 3031 3028 3027 3025 3024 3021 3016 3018 3012 3011 3012 3013 3017 3018 3019 3023 3021 3024 3023 3034 3039 3042 3043 3046
3106 3100 3094 3088 3083 3078 3072 3067 3062 3058 3053 3049 3045 3037 3035 3032 3033 3035 3030 3028 3025 3023 3022 3021 3017 3015 3010 3011 3008 3002 3003 3005 3005 3006 3008 3015 3012 3013 3007 3018 3025 3029 3031 3036 3040
3102 3095 3089 3084 3078 3072 3066 3061 3056 3050 3047 3043 3037 3031 3029 3026 3026 3025 3025 3023 3020 3016 3013 3011 3008 3005 3000 3000 3001 2998 2995 2994 2994 2996 3000 3002 3002 3007 2997 3011 3014 3019 3022 3027 3032
3097 3091 3085 3078 3072 3065 3059 3054 3049 3043 3040 3036 3031 3024 3020 3025 3018 3017 3016 3016 3014 3008 3007 3004 3000 2999 2996 2994 2994 2991 2989 2988 2987 2989 2991 2995 2991 2983 2996 3003 3003 3008 3013 3018 3023
3093 3087 3081 3073 3066 3059 3052 3046 3042 3036 3032 3028 3023 3020 3015 3015 3014 3012 3012 3011 3006 3004 3001 2999 2994 2993 2990 2990 2988 2986 2985 2983 2982 2984 2986 2989 2973 2978 2991 2993 2994 2998 3003 3008 3014
3089 3082 3076 3067 3059 3052 3045 3039 3034 3029 3027 3022 3019 3015 3012 3011 3011 3009 3008 3005 3001 2997 2995 2993 2990 2989 2989 2988 2986 2984 2982 2981 2979 2982 2978 2979 2968 2978 2981 2985 2986 2990 2995 2999 3005
3085 3078 3071 3063 3053 3046 3039 3033 3027 3022 3020 3018 3011 3014 3010 3009 3006 3002 3000 2996 2994 2992 2991 2991 2989 2987 2986 2987 2984 2982 2981 2978 2976 2978 2975 2971 2966 2969 2975 2975 2977 2980 2986 2991 2996
3080 3073 3066 3058 3048 3041 3034 3027 3024 3018 3014 3012 3010 3008 3008 3006 3002 2999 2996 2994 2990 2989 2988 2988 2988 2986 2986 2985 2982 2980 2979 2977 2975 2973 2971 2968 2962 2964 2966 2967 2970 2973 2978 2982 2988
3075 3068 3060 3052 3044 3035 3029 3023 3018 3016 3009 3007 3006 3005 3005 3004 3001 2997 2996 2994 2991 2988 2987 2988 2985 2984 2982 2980 2978 2978 2977 2974 2972 2971 2970 2965 2957 2959 2961 2960 2964 2967 2971 2976 2982
3070 3062 3055 3046 3039 3033 3026 3021 3016 3011 3009 3007 3006 3006 3004 3002 2998 2996 2995 2992 2991 2989 2989 2987 2985 2982 2981 2979 2978 2976 2976 2973 2972 2967 2963 2961 2955 2955 2956 2955 2958 2961 2965 2968 2974
3066 3058 3050 3043 3038 3029 3024 3018 3013 3010 3005 3009 3007 3004 3002 2999 2997 2994 2992 2994 2991 2991 2990 2987 2985 2983 2981 2979 2979 2974 2975 2973 2969 2967 2965 2965 2960 2952 2952 2951 2953 2956 2960 2964 2968
3062 3053 3045 3036 3031 3025 3021 3015 3012 3009 3011 3008 3005 3004 3001 3001 2998 2995 2994 2991 2990 2990 2991 2986 2984 2983 2979 2978 2976 2974 2973 2971 2968 2966 2967 2962 2961 2948 2949 2947 2950 2952 2954 2956 2962
3058 3050 3042 3035 3028 3022 3016 3012 3011 3011 3007 3006 3004 3002 3001 2998 2995 2994 2992 2990 2988 2984 2984 2981 2980 2979 2977 2975 2973 2972 2971 2968 2964 2964 2967 2961 2959 2947 2947 2948 2946 2948 2949 2950 2951
3055 3047 3039 3031 3026 3019 3015 3012 3011 3006 3008 3006 3003 3000 2998 2996 2993 2991 2989 2987 2986 2983 2978 2977 2975 2973 2975 2975 2972 2970 2969 2969 2970 2968 2968 2959 2956 2949 2947 2948 2948 2945 2944 2945 2945
3052 3044 3036 3029 3022 3016 3012 3010 3009 3006 3005 3004 3001 2998 2996 2994 2992 2990 2987 2983 2982 2981 2979 2976 2973 2973 2974 2974 2971 2969 2969 2970 2975 2973 2962 2959 2951 2947 2946 2946 2941 2940 2939 2939 2937
3047 3040 3033 3025 3018 3013 3011 3008 3006 3004 3003 3001 2998 2995 2994 2993 2992 2987 2982 2980 2979 2979 2980 2976 2973 2972 2973 2972 2971 2969 2969 2969 2966 2961 2959 2948 2945 2944 2942 2939 2936 2935 2934 2934 2932
3042 3037 3028 3020 3014 3010 3007 3006 3003 3001 3000 2998 2996 2995 2991 2990 2989 2986 2981 2978 2977 2976 2976 2974 2972 2969 2970 2971 2970 2968 2967 2966 2964 2969 2959 2943 2941 2939 2937 2934 2932 2929 2928 2929 2929
3032 3026 3022 3015 3010 3006 3004 3001 2999 2998 2997 2997 2993 2990 2988 2986 2984 2983 2978 2977 2975 2973 2974 2973 2972 2969 2968 2968 2967 2966 2964 2964 2963 2962 2960 2955 2941 2938 2935 2935 2931 2929 2925 2924 2924
3025 3022 3016 3009 3008 3001 3000 2998 2997 2995 2993 2991 2989 2987 2984 2983 2981 2979 2975 2973 2973 2972 2971 2970 2968 2964 2965 2963 2963 2963 2962 2962 2962 2961 2957 2955 2942 2939 2935 2934 2931 2927 2923 2921 2920
3018 3014 3009 3004 3000 2997 2995 2994 2991 2990 2989 2986 2985 2983 2981 2979 2977 2972 2970 2970 2970 2968 2967 2966 2964 2962 2961 2963 2963 2961 2960 2959 2959 2957 2951 2953 2938 2935 2934 2926 2923 2919 2917 2917 2916
3014 3009 3002 2997 2994 2992 2989 2987 2985 2985 2983 2981 2979 2978 2976 2973 2973 2969 2966 2967 2966 2966 2966 2963 2960 2959 2958 2958 2959 2957 2955 2955 2955 2952 2946 2935 2932 2929 2932 2926 2921 2917 2914 2913 2912
3011 3003 3001 2994 2988 2986 2983 2981 2979 2978 2976 2974 2972 2973 2971 2967 2966 2963 2962 2961 2962 2962 2960 2960 2954 2953 2952 2952 2951 2949 2946 2945 2945 2942 2940 2926 2931 2929 2927 2923 2918 2912 2910 2909 2906
3007 3001 2991 2988 2984 2980 2978 2973 2973 2972 2969 2967 2965 2966 2965 2961 2960 2957 2955 2954 2953 2954 2954 2954 2951 2948 2946 2947 2946 2942 2940 2937 2936 2932 2928 2929 2924 2923 2924 2919 2914 2909 2905 2903 2900
2998 2993 2985 2983 2977 2973 2972 2968 2966 2964 2964 2961 2961 2959 2956 2954 2953 2951 2951 2948 2946 2945 2946 2947 2946 2945 2941 2940 2941 2937 2930 2929 2929 2928 2927 2926 2925 2922 2920 2915 2911 2907 2902 2896 2893